Weather History for Quantico, VA

Change the Weather History Date:

Wednesday, December 5, 2012

  Actual Average Record
Temperature  
Mean Temperature 54 °F -  
Max Temperature 64 °F 48 °F 70 °F (1998)
Min Temperature 39 °F 32 °F 24 °F (2006)
Degree Days  
Heating Degree Days 12    
Growing Degree Days 4 (Base 50)    
Moisture  
Dew Point 34 °F    
Average Humidity 45    
Maximum Humidity 60    
Minimum Humidity 27    
Precipitation  
Precipitation 0.00 in - - ()
Sea Level Pressure  
Sea Level Pressure 30.16 in    
Wind  
Wind Speed 10 mph (NNW)    
Max Wind Speed 17 mph    
Max Gust Speed 26 mph    
Visibility 10 miles    
Events Rain    
Averages and records for this station are not official NWS values.
T = Trace of Precipitation, MM = Missing Value Source: NWS Daily Summary

Daily Weather History Graph

Daily Weather History Graph

Search for Another Location

Airport:

Trip Planner

Search our weather history database for the weather conditions in past years. The results will help you decide how hot, cold, wet, or windy it might be!

Date:

Astronomy

Dec. 05, 2012 Rise Set
Actual Time 7:11 AM EST 4:48 PM EST
Civil Twilight 6:42 AM EST 5:17 PM EST
Nautical Twilight 6:09 AM EST 5:50 PM EST
Astronomical Twilight 5:37 AM EST 6:22 PM EST
Moon 11:31 PM EST (12/5) 11:37 AM EST (12/5)
Length of Visible Light 10h 35m
Length of Day
9h 36m
Waning Gibbous, 60% of the Moon is Illuminated
Dec 5
Waning Gibbous
Dec 6
Last Quarter
Dec 13
New
Dec 20
First Quarter
Dec 28
Full

Hourly Weather History & Observations

Time (EST) Temp. Windchill Dew Point Humidity Pressure Visibility Wind Dir Wind Speed Gust Speed Precip Events Conditions
12:56 AM 64.0 °F - 48.0 °F 56% 30.04 in 10.0 mi WSW 6.9 mph - N/A   Mostly Cloudy
1:56 AM 64.0 °F - 48.0 °F 56% 30.03 in 10.0 mi WSW 8.1 mph 16.1 mph N/A   Clear
2:56 AM 64.0 °F - 46.9 °F 54% 30.02 in 10.0 mi SW 9.2 mph 17.3 mph N/A   Partly Cloudy
3:56 AM 64.0 °F - 48.0 °F 56% 30.02 in 10.0 mi WSW 9.2 mph 16.1 mph N/A   Clear
4:56 AM 61.0 °F - 46.9 °F 60% 30.05 in 10.0 mi NW 5.8 mph - N/A   Partly Cloudy
5:56 AM 60.1 °F - 45.0 °F 57% 30.09 in 10.0 mi North 13.8 mph 20.7 mph N/A   Mostly Cloudy
6:56 AM 57.0 °F - 39.0 °F 51% 30.12 in 10.0 mi North 13.8 mph - 0.00 in Rain Light Rain
7:56 AM 55.9 °F - 41.0 °F 57% 30.16 in 10.0 mi NNW 9.2 mph 16.1 mph 0.00 in   Mostly Cloudy
9:56 AM 55.0 °F - 32.0 °F 42% 30.18 in 10.0 mi NNW 15.0 mph 23.0 mph N/A   Overcast
10:56 AM 57.0 °F - 30.9 °F 37% 30.19 in 10.0 mi NNW 17.3 mph 26.5 mph N/A   Overcast
11:56 AM 57.0 °F - 30.0 °F 36% 30.17 in 10.0 mi NNW 10.4 mph - N/A   Mostly Cloudy
12:56 PM 57.9 °F - 28.9 °F 33% 30.15 in 10.0 mi NW 12.7 mph - N/A   Mostly Cloudy
1:56 PM 61.0 °F - 28.9 °F 30% 30.14 in 10.0 mi North 11.5 mph 17.3 mph N/A   Scattered Clouds
2:56 PM 61.0 °F - 27.0 °F 27% 30.14 in 10.0 mi North 10.4 mph - N/A   Scattered Clouds
3:56 PM 60.1 °F - 28.0 °F 30% 30.15 in 10.0 mi North 9.2 mph - N/A   Partly Cloudy
4:56 PM 55.9 °F - 28.0 °F 34% 30.18 in 10.0 mi NNE 12.7 mph - N/A   Partly Cloudy
5:56 PM 54.0 °F - 27.0 °F 35% 30.21 in 10.0 mi North 12.7 mph - N/A   Clear
6:56 PM 52.0 °F - 27.0 °F 38% 30.24 in 10.0 mi North 17.3 mph - N/A   Clear
7:56 PM 48.9 °F - 28.0 °F 44% 30.28 in 10.0 mi NNE 15.0 mph 20.7 mph N/A   Clear
8:56 PM 46.9 °F - 27.0 °F 46% 30.29 in 10.0 mi North 17.3 mph 21.9 mph N/A   Clear
9:56 PM 45.0 °F 40.6 °F 26.1 °F 48% 30.30 in 10.0 mi NNE 8.1 mph - N/A   Clear
10:56 PM 43.0 °F 36.0 °F 26.1 °F 51% 30.31 in 10.0 mi North 13.8 mph - N/A   Clear
11:56 PM 39.9 °F 34.5 °F 25.0 °F 55% 30.32 in 10.0 mi North 8.1 mph - N/A   Clear